User: anonymous   Login
Location: Unspecified
(0.0000°N, 0.0000°E)
Time: 21:50:30
(UTC+00:00)
Language:

USA 93 - Orbit

View from above orbital plane
View from above orbital plane
View from above satellite
View from above satellite

Ground track
Ground track

The orbit data is extracted from the following two-line orbital elements,

1 22719U 93046A   18220.66196407 0.00000000  00000-0  00000-0 0    08
2 22719  11.3619  34.5201 0002003 335.1224  24.8562  0.99053449    04
Epoch (UTC): 08 August 2018 15:53:13
Eccentricity: 0.0002003
inclination: 11.3619°
perigee height: 36123 km
apogee height: 36140 km
right ascension of ascending node: 34.5201°
argument of perigee: 335.1224°
revolutions per day: 0.99053449
mean anomaly at epoch: 24.8562°
orbit number at epoch: 0

The dashed part of the orbit path shows where the satellite is in the earth's shadow,  

DLR